QLK210 YPAD-YMML

Flight info

Callsign QLK210
Flight time 0h 56m
Altitude 37000
Route BENDO3/05 BENDO Y12 ARBEY H119 ML DCT
Aircraft A320/M-SDE3FGHIRWY/LB1

Departure

Time 2026-05-01 12:46
Airport Adelaide International Airport (YPAD)

Arrival

Time 2026-05-01 13:43
Airport Melbourne Airport (YMML)
Time Latitude Longitude Altitude Speed Heading
2026-05-01 12:25 -34.94037 138.53702 24 ft 0 kts 315°
2026-05-01 12:34 -34.94044 138.53711 24 ft 3 kts 315°
2026-05-01 12:34 -34.94057 138.53726 24 ft 3 kts 315°
2026-05-01 12:35 -34.94070 138.53739 25 ft 3 kts 307°
2026-05-01 12:35 -34.94081 138.53756 23 ft 3 kts 307°
2026-05-01 12:35 -34.94089 138.53775 24 ft 2 kts 248°
2026-05-01 12:35 -34.94085 138.53784 23 ft 1 kts 228°
2026-05-01 12:37 -34.94085 138.53783 23 ft 1 kts 228°
2026-05-01 12:37 -34.94099 138.53765 21 ft 5 kts 229°
2026-05-01 12:38 -34.94129 138.53722 21 ft 9 kts 231°
2026-05-01 12:38 -34.94169 138.53661 19 ft 6 kts 230°
2026-05-01 12:38 -34.94226 138.53641 19 ft 10 kts 168°
2026-05-01 12:38 -34.94292 138.53653 16 ft 11 kts 202°
2026-05-01 12:39 -34.94347 138.53575 16 ft 13 kts 231°
2026-05-01 12:39 -34.94412 138.53479 15 ft 16 kts 230°
2026-05-01 12:39 -34.94488 138.53369 16 ft 16 kts 230°
2026-05-01 12:39 -34.94519 138.53263 19 ft 13 kts 274°
2026-05-01 12:40 -34.94483 138.53166 21 ft 13 kts 303°
2026-05-01 12:40 -34.94442 138.53070 21 ft 13 kts 279°
2026-05-01 12:40 -34.94477 138.52971 21 ft 10 kts 220°
2026-05-01 12:40 -34.94539 138.52915 22 ft 12 kts 216°
2026-05-01 12:41 -34.94608 138.52850 23 ft 14 kts 217°
2026-05-01 12:41 -34.94695 138.52768 21 ft 18 kts 218°
2026-05-01 12:41 -34.94801 138.52668 21 ft 20 kts 217°
2026-05-01 12:41 -34.94923 138.52554 18 ft 24 kts 218°
2026-05-01 12:42 -34.95061 138.52423 19 ft 26 kts 218°
2026-05-01 12:42 -34.95209 138.52283 18 ft 24 kts 218°
2026-05-01 12:42 -34.95302 138.52181 23 ft 18 kts 230°
2026-05-01 12:42 -34.95393 138.52053 21 ft 21 kts 230°
2026-05-01 12:43 -34.95483 138.51922 21 ft 20 kts 230°
2026-05-01 12:43 -34.95575 138.51787 18 ft 20 kts 230°
2026-05-01 12:43 -34.95655 138.51672 16 ft 13 kts 229°
2026-05-01 12:43 -34.95734 138.51637 15 ft 12 kts 173°
2026-05-01 12:44 -34.95769 138.51654 13 ft 0 kts 147°
2026-05-01 12:44 -34.95785 138.51668 14 ft 6 kts 142°
2026-05-01 12:45 -34.95790 138.51810 12 ft 11 kts 53°
2026-05-01 12:45 -34.95723 138.51910 12 ft 32 kts 50°
2026-05-01 12:45 -34.95425 138.52338 20 ft 97 kts 49°
2026-05-01 12:46 -34.94876 138.53132 32 ft 145 kts 47°
2026-05-01 12:46 -34.94206 138.54092 467 ft 154 kts 45°
2026-05-01 12:46 -34.93514 138.55105 1086 ft 156 kts 46°
2026-05-01 12:46 -34.92807 138.56140 1779 ft 160 kts 43°
2026-05-01 12:47 -34.92301 138.57447 2202 ft 195 kts 77°
2026-05-01 12:47 -34.92612 138.59205 2475 ft 236 kts 104°
2026-05-01 12:47 -34.93382 138.61107 2884 ft 264 kts 112°
2026-05-01 12:47 -34.94335 138.63111 3628 ft 278 kts 115°
2026-05-01 12:48 -34.95329 138.65155 4569 ft 283 kts 115°
2026-05-01 12:48 -34.96319 138.67253 5527 ft 288 kts 114°
2026-05-01 12:48 -34.97293 138.69405 6485 ft 289 kts 113°
2026-05-01 12:48 -34.98249 138.71600 7326 ft 296 kts 113°
2026-05-01 12:49 -34.99200 138.73848 8201 ft 301 kts 112°
2026-05-01 12:49 -35.00156 138.76140 9094 ft 304 kts 112°
2026-05-01 12:49 -35.01115 138.78454 9969 ft 308 kts 112°
2026-05-01 12:49 -35.02101 138.80846 10430 ft 326 kts 112°
2026-05-01 12:50 -35.03152 138.83408 10677 ft 349 kts 113°
2026-05-01 12:50 -35.04264 138.86109 11154 ft 361 kts 113°
2026-05-01 12:50 -35.05408 138.88869 11785 ft 368 kts 113°
2026-05-01 12:50 -35.06470 138.91691 12463 ft 371 kts 107°
2026-05-01 12:51 -35.07380 138.94658 13145 ft 376 kts 107°
2026-05-01 12:51 -35.08297 138.97669 13829 ft 381 kts 107°
2026-05-01 12:51 -35.10158 139.03815 15046 ft 389 kts 106°
2026-05-01 12:52 -35.11099 139.06934 15659 ft 393 kts 106°
2026-05-01 12:52 -35.13005 139.13233 16953 ft 398 kts 106°
2026-05-01 12:52 -35.13968 139.16417 17587 ft 401 kts 105°
2026-05-01 12:53 -35.15919 139.22889 18785 ft 409 kts 105°
2026-05-01 12:53 -35.16903 139.26169 19335 ft 413 kts 105°
2026-05-01 12:53 -35.17894 139.29481 19884 ft 418 kts 105°
2026-05-01 12:54 -35.18898 139.32839 20436 ft 422 kts 105°
2026-05-01 12:54 -35.20943 139.39655 21504 ft 431 kts 106°
2026-05-01 12:54 -35.21981 139.43117 22021 ft 435 kts 106°
2026-05-01 12:55 -35.24069 139.50102 23001 ft 444 kts 106°
2026-05-01 12:55 -35.25185 139.53642 23480 ft 449 kts 108°
2026-05-01 12:55 -35.26432 139.57165 23896 ft 454 kts 110°
2026-05-01 12:56 -35.27772 139.60683 24311 ft 457 kts 111°
2026-05-01 12:56 -35.29152 139.64198 24736 ft 460 kts 112°
2026-05-01 12:56 -35.30540 139.67734 25154 ft 462 kts 112°
2026-05-01 12:56 -35.31918 139.71303 25560 ft 464 kts 111°
2026-05-01 12:57 -35.33271 139.74894 25946 ft 466 kts 111°
2026-05-01 12:57 -35.35957 139.82187 26707 ft 471 kts 110°
2026-05-01 12:57 -35.37295 139.85861 27088 ft 474 kts 110°
2026-05-01 12:58 -35.38640 139.89550 27465 ft 476 kts 110°
2026-05-01 12:58 -35.39985 139.93219 27828 ft 479 kts 111°
2026-05-01 12:58 -35.41361 139.96949 28197 ft 482 kts 111°
2026-05-01 12:59 -35.44141 140.04479 28946 ft 486 kts 111°
2026-05-01 12:59 -35.45538 140.08274 29310 ft 489 kts 111°
2026-05-01 12:59 -35.48336 140.15917 30012 ft 494 kts 111°
2026-05-01 13:00 -35.51152 140.23628 30701 ft 494 kts 111°
2026-05-01 13:00 -35.52555 140.27471 31190 ft 492 kts 111°
2026-05-01 13:01 -35.55339 140.35109 32040 ft 489 kts 111°
2026-05-01 13:01 -35.56727 140.38921 32446 ft 489 kts 111°
2026-05-01 13:01 -35.59490 140.46545 33264 ft 488 kts 111°
2026-05-01 13:02 -35.60852 140.50315 33670 ft 488 kts 111°
2026-05-01 13:07 -35.89754 141.31181 37106 ft 493 kts 111°
2026-05-01 13:07 -35.91119 141.35058 37106 ft 493 kts 111°
2026-05-01 13:08 -35.93830 141.42765 37113 ft 493 kts 111°
2026-05-01 13:08 -35.96551 141.50538 37118 ft 493 kts 111°
2026-05-01 13:09 -35.99276 141.58327 37124 ft 494 kts 111°
2026-05-01 13:09 -36.01996 141.66108 37131 ft 494 kts 111°
2026-05-01 13:10 -36.04710 141.73903 37134 ft 494 kts 111°
2026-05-01 13:10 -36.07419 141.81699 37130 ft 494 kts 111°
2026-05-01 13:11 -36.10122 141.89506 37137 ft 494 kts 111°
2026-05-01 13:11 -36.12819 141.97308 37142 ft 494 kts 111°
2026-05-01 13:12 -36.15509 142.05120 37142 ft 493 kts 111°
2026-05-01 13:12 -36.18198 142.12937 37152 ft 493 kts 111°
2026-05-01 13:13 -36.20877 142.20759 37153 ft 493 kts 111°
2026-05-01 13:13 -36.23552 142.28583 37155 ft 493 kts 111°
2026-05-01 13:14 -36.26207 142.36351 37159 ft 492 kts 111°
2026-05-01 13:14 -36.28870 142.44164 37162 ft 492 kts 111°
2026-05-01 13:15 -36.31522 142.51978 37165 ft 492 kts 111°
2026-05-01 13:15 -36.34167 142.59798 37160 ft 491 kts 111°
2026-05-01 13:16 -36.36802 142.67613 37170 ft 491 kts 111°
2026-05-01 13:16 -36.39435 142.75443 37170 ft 491 kts 111°
2026-05-01 13:17 -36.44692 142.91086 37180 ft 490 kts 110°
2026-05-01 13:18 -36.48589 143.02777 37177 ft 490 kts 110°
2026-05-01 13:18 -36.51188 143.10598 37186 ft 489 kts 110°
2026-05-01 13:19 -36.53781 143.18419 37181 ft 489 kts 110°
2026-05-01 13:20 -36.57654 143.30154 37190 ft 488 kts 110°
2026-05-01 13:20 -36.60226 143.37982 37191 ft 488 kts 110°
2026-05-01 13:21 -36.64062 143.49678 37206 ft 489 kts 110°
2026-05-01 13:21 -36.65349 143.53596 36978 ft 489 kts 110°
2026-05-01 13:21 -36.66630 143.57511 36722 ft 488 kts 110°
2026-05-01 13:22 -36.67909 143.61429 36467 ft 488 kts 110°
2026-05-01 13:22 -36.69185 143.65342 36224 ft 487 kts 110°
2026-05-01 13:22 -36.70462 143.69262 35972 ft 487 kts 110°
2026-05-01 13:22 -36.71733 143.73176 35725 ft 487 kts 110°
2026-05-01 13:23 -36.73006 143.77105 35449 ft 488 kts 110°
2026-05-01 13:23 -36.74281 143.81046 34535 ft 494 kts 110°
2026-05-01 13:23 -36.75573 143.85050 33480 ft 500 kts 110°
2026-05-01 13:23 -36.76869 143.89073 32500 ft 501 kts 110°
2026-05-01 13:24 -36.78174 143.93118 31434 ft 505 kts 110°
2026-05-01 13:24 -36.79462 143.97104 30913 ft 496 kts 110°
2026-05-01 13:24 -36.80747 144.01078 30234 ft 492 kts 110°
2026-05-01 13:25 -36.83274 144.08927 28888 ft 482 kts 110°
2026-05-01 13:25 -36.84517 144.12793 28232 ft 477 kts 110°
2026-05-01 13:25 -36.85746 144.16619 27604 ft 473 kts 110°
2026-05-01 13:25 -36.86963 144.20417 26955 ft 469 kts 110°
2026-05-01 13:26 -36.88165 144.24177 26332 ft 465 kts 110°
2026-05-01 13:26 -36.89358 144.27922 25713 ft 461 kts 110°
2026-05-01 13:26 -36.90538 144.31637 25095 ft 458 kts 110°
2026-05-01 13:26 -36.91712 144.35320 24526 ft 455 kts 111°
2026-05-01 13:27 -36.93159 144.38812 23991 ft 452 kts 122°
2026-05-01 13:27 -36.95049 144.41928 23397 ft 449 kts 131°
2026-05-01 13:27 -36.98447 144.46753 22540 ft 440 kts 130°
2026-05-01 13:28 -37.03085 144.53378 21341 ft 431 kts 129°
2026-05-01 13:28 -37.05050 144.56202 20824 ft 428 kts 129°
2026-05-01 13:29 -37.08293 144.60864 19936 ft 425 kts 129°
2026-05-01 13:29 -37.12163 144.66439 18908 ft 420 kts 129°
2026-05-01 13:30 -37.21418 144.74395 16523 ft 392 kts 168°
2026-05-01 13:31 -37.26654 144.75762 15456 ft 382 kts 168°
2026-05-01 13:31 -37.34428 144.77804 13820 ft 378 kts 169°
2026-05-01 13:32 -37.39593 144.78794 12739 ft 373 kts 173°
2026-05-01 13:33 -37.47233 144.79146 11166 ft 363 kts 194°
2026-05-01 13:33 -37.51920 144.77106 10548 ft 345 kts 203°
2026-05-01 13:34 -37.56196 144.75095 10137 ft 314 kts 204°
2026-05-01 13:34 -37.60348 144.73699 9298 ft 312 kts 185°
2026-05-01 13:35 -37.64679 144.73417 8981 ft 312 kts 185°
2026-05-01 13:35 -37.66862 144.73263 8982 ft 315 kts 185°
2026-05-01 13:35 -37.71121 144.72965 8399 ft 306 kts 184°
2026-05-01 13:36 -37.73267 144.72884 7593 ft 311 kts 182°
2026-05-01 13:36 -37.75448 144.72852 6815 ft 315 kts 181°
2026-05-01 13:36 -37.79828 144.73116 5200 ft 317 kts 161°
2026-05-01 13:37 -37.81767 144.74344 4471 ft 309 kts 137°
2026-05-01 13:37 -37.83178 144.76313 3750 ft 298 kts 116°
2026-05-01 13:37 -37.83939 144.78637 3404 ft 272 kts 96°
2026-05-01 13:37 -37.84103 144.80865 3339 ft 238 kts 78°
2026-05-01 13:38 -37.83703 144.84589 3240 ft 197 kts 69°
2026-05-01 13:38 -37.83099 144.85969 3207 ft 169 kts 36°
2026-05-01 13:38 -37.82093 144.86555 3026 ft 159 kts
2026-05-01 13:39 -37.81003 144.86431 2788 ft 156 kts 355°
2026-05-01 13:39 -37.79951 144.86228 2569 ft 149 kts 355°
2026-05-01 13:39 -37.78957 144.86038 2377 ft 140 kts 356°
2026-05-01 13:39 -37.78012 144.85860 2190 ft 135 kts 356°
2026-05-01 13:40 -37.77096 144.85688 2013 ft 131 kts 357°
2026-05-01 13:40 -37.76189 144.85519 1841 ft 132 kts 357°
2026-05-01 13:40 -37.75283 144.85351 1653 ft 132 kts 356°
2026-05-01 13:40 -37.74382 144.85184 1474 ft 131 kts 356°
2026-05-01 13:41 -37.73464 144.85014 1292 ft 135 kts 354°
2026-05-01 13:41 -37.72547 144.84843 1111 ft 131 kts 353°
2026-05-01 13:41 -37.71647 144.84675 941 ft 131 kts 352°
2026-05-01 13:41 -37.70751 144.84509 774 ft 130 kts 352°
2026-05-01 13:42 -37.69865 144.84352 615 ft 128 kts 351°
2026-05-01 13:42 -37.68972 144.84171 462 ft 128 kts 352°
2026-05-01 13:42 -37.68157 144.84012 358 ft 104 kts 352°
2026-05-01 13:42 -37.67610 144.83917 364 ft 56 kts 352°
2026-05-01 13:43 -37.67354 144.83871 372 ft 30 kts 352°
2026-05-01 13:43 -37.67178 144.83838 381 ft 21 kts 351°
2026-05-01 13:43 -37.67054 144.83833 384 ft 18 kts
2026-05-01 13:43 -37.66929 144.83866 389 ft 19 kts 21°
2026-05-01 13:44 -37.66833 144.83917 391 ft 15 kts 22°
2026-05-01 13:44 -37.66740 144.83985 393 ft 16 kts 50°
2026-05-01 13:44 -37.66710 144.84130 395 ft 19 kts 81°
2026-05-01 13:44 -37.66690 144.84302 394 ft 21 kts 82°
2026-05-01 13:45 -37.66667 144.84492 399 ft 23 kts 81°
2026-05-01 13:45 -37.66645 144.84668 401 ft 16 kts 81°
2026-05-01 13:45 -37.66640 144.84769 402 ft 10 kts 107°
2026-05-01 13:45 -37.66704 144.84815 400 ft 11 kts 162°
2026-05-01 13:46 -37.66723 144.84878 400 ft 9 kts 81°
2026-05-01 13:46 -37.66719 144.84904 400 ft 0 kts 81°